Location: Callanans Corners
(42.5326°N, 73.8846°W)
Time: 14:48:57
(UTC+00:00)

Cosmos 968 Rocket - Pass Details

Date: 06 October 2022
Orbit: 741 x 769 km, 74.0° (Epoch: 28 November)

Event Time Altitude Azimuth Distance (km) Brightness Sun altitude
Rises 23:18:38 0° 194° (SSW) 3,224 6.9 -10.1°
Reaches altitude 10° 23:21:00 10° 193° (SSW) 2,300 6.1 -10.5°
Maximum altitude 23:26:13 78° 108° (ESE) 787 3.4 -11.5°
Drops below altitude 10° 23:31:27 10° 23° (NNE) 2,303 5.8 -12.5°
Sets 23:33:49 0° 22° (NNE) 3,228 6.6 -12.9°
